When you browse on this site, cookies collect data to enhance your experience and personalize the content and advertising you see.
Visit our Privacy Policy to learn more. By continuing to use the site, you agree to this use of cookies and data.
  • în România
  • Lista ţărilor
  • Pe 7 zile
  • Temperatura apei
  • Meteo pe hartă
  • Widget-uri
  • user-avatar
    Intrare

    Meteo pe oră la Batina

    Astăzi, 15 Noiembrie, Vineri

    Timp Temperatura Precipitaţii Vânt Presiune Umiditate
    00:00 +8°C° 0 mm 5 m/s 662 mmHg 66%
    01:00 +8°C° 0 mm 4 m/s 662 mmHg 68%
    02:00 +8°C° 0 mm 3 m/s 661 mmHg 69%
    03:00 +8°C° 0 mm 2 m/s 661 mmHg 71%
    04:00 +8°C° 0 mm 2 m/s 661 mmHg 74%
    05:00 +7°C° 0 mm 2 m/s 661 mmHg 77%
    06:00 +7°C° 0 mm 3 m/s 661 mmHg 81%
    07:00 +8°C° 0 mm 3 m/s 662 mmHg 75%
    08:00 +8°C° 0 mm 4 m/s 662 mmHg 69%
    09:00 +10°C° 0 mm 4 m/s 663 mmHg 63%
    10:00 +9°C° 0 mm 5 m/s 663 mmHg 58%
    11:00 +10°C° 0 mm 5 m/s 663 mmHg 53%
    12:00 +10°C° 0 mm 6 m/s 662 mmHg 48%
    13:00 +10°C° 0 mm 6 m/s 662 mmHg 48%
    14:00 +9°C° 0 mm 6 m/s 662 mmHg 48%
    15:00 +9°C° 0 mm 6 m/s 662 mmHg 49%
    16:00 +8°C° 0 mm 5 m/s 662 mmHg 53%
    17:00 +7°C° 0 mm 4 m/s 662 mmHg 58%
    18:00 +7°C° 0 mm 2 m/s 662 mmHg 62%
    19:00 +6°C° 0 mm 2 m/s 663 mmHg 62%
    20:00 +6°C° 0 mm 2 m/s 663 mmHg 62%
    21:00 +7°C° 0 mm 1 m/s 663 mmHg 62%
    22:00 +7°C° 0 mm 1 m/s 663 mmHg 60%
    23:00 +7°C° 0 mm 1 m/s 663 mmHg 58%

    Mâine, 16 Noiembrie, Sâmbătă

    Timp Temperatura Precipitaţii Vânt Presiune Umiditate
    00:00 +8°C° 0 mm 1 m/s 663 mmHg 57%
    01:00 +6°C° 0.4 mm 2 m/s 662 mmHg 63%
    02:00 +6°C° 0.4 mm 2 m/s 662 mmHg 69%
    03:00 +6°C° 0.4 mm 2 m/s 662 mmHg 75%
    04:00 +5°C° 1 mm 2 m/s 662 mmHg 80%
    05:00 +5°C° 1 mm 2 m/s 661 mmHg 85%
    06:00 +6°C° 1 mm 1 m/s 661 mmHg 91%
    07:00 +5°C° 1.1 mm 1 m/s 661 mmHg 91%
    08:00 +5°C° 1.1 mm 1 m/s 661 mmHg 92%
    09:00 +5°C° 1.1 mm 1 m/s 661 mmHg 92%
    10:00 +5°C° 1.2 mm 1 m/s 661 mmHg 92%
    11:00 +4°C° 1.2 mm 2 m/s 660 mmHg 92%
    12:00 +4°C° 1.2 mm 2 m/s 660 mmHg 92%
    13:00 +3°C° 0.4 mm 3 m/s 660 mmHg 91%
    14:00 +3°C° 0.4 mm 3 m/s 660 mmHg 89%
    15:00 +3°C° 0.4 mm 4 m/s 660 mmHg 87%
    16:00 +3°C° 0 mm 4 m/s 660 mmHg 85%
    17:00 +1°C° 0 mm 4 m/s 660 mmHg 82%
    18:00 +1°C° 0 mm 4 m/s 661 mmHg 80%
    19:00 +1°C° 0.1 mm 4 m/s 661 mmHg 84%
    20:00 0°C° 0.1 mm 4 m/s 661 mmHg 88%
    21:00 0°C° 0.1 mm 5 m/s 662 mmHg 93%
    22:00 0°C° 1.3 mm 4 m/s 662 mmHg 94%
    23:00 0°C° 1.3 mm 4 m/s 662 mmHg 95%

    Poimâine, 17 Noiembrie, Duminică

    Timp Temperatura Precipitaţii Vânt Presiune Umiditate
    00:00 0°C° 1.3 mm 4 m/s 662 mmHg 96%
    01:00 0°C° 0.4 mm 4 m/s 663 mmHg 95%
    02:00 +1°C° 0.4 mm 5 m/s 663 mmHg 94%
    03:00 +1°C° 0.4 mm 5 m/s 664 mmHg 93%
    04:00 0°C° 0 mm 4 m/s 664 mmHg 93%
    05:00 +1°C° 0 mm 3 m/s 664 mmHg 93%
    06:00 +1°C° 0 mm 2 m/s 664 mmHg 92%
    07:00 +1°C° 0 mm 3 m/s 665 mmHg 85%
    08:00 +2°C° 0 mm 3 m/s 666 mmHg 77%
    09:00 +3°C° 0 mm 3 m/s 667 mmHg 70%
    10:00 +4°C° 0 mm 4 m/s 667 mmHg 69%
    11:00 +5°C° 0 mm 4 m/s 667 mmHg 69%
    12:00 +5°C° 0 mm 4 m/s 667 mmHg 68%
    13:00 +5°C° 0 mm 4 m/s 667 mmHg 66%
    14:00 +5°C° 0 mm 4 m/s 667 mmHg 64%
    15:00 +5°C° 0 mm 4 m/s 667 mmHg 62%
    16:00 +5°C° 0 mm 4 m/s 667 mmHg 66%
    17:00 +4°C° 0 mm 4 m/s 667 mmHg 71%
    18:00 +3°C° 0 mm 4 m/s 667 mmHg 75%
    19:00 +3°C° 0 mm 3 m/s 667 mmHg 77%
    20:00 +3°C° 0 mm 3 m/s 667 mmHg 79%
    21:00 +2°C° 0 mm 3 m/s 667 mmHg 81%
    22:00 +2°C° 0 mm 3 m/s 667 mmHg 82%
    23:00 +2°C° 0 mm 3 m/s 667 mmHg 83%

    18 Noiembrie, Luni

    Timp Temperatura Precipitaţii Vânt Presiune Umiditate
    00:00 +2°C° 0 mm 3 m/s 667 mmHg 83%
    01:00 +2°C° 0 mm 3 m/s 667 mmHg 83%
    02:00 +2°C° 0 mm 3 m/s 667 mmHg 83%
    03:00 +2°C° 0 mm 3 m/s 666 mmHg 83%
    04:00 +2°C° 0 mm 3 m/s 666 mmHg 82%
    05:00 +2°C° 0 mm 3 m/s 666 mmHg 82%
    06:00 +3°C° 0 mm 3 m/s 666 mmHg 81%
    07:00 +3°C° 0 mm 4 m/s 666 mmHg 78%
    08:00 +4°C° 0 mm 4 m/s 667 mmHg 76%
    09:00 +5°C° 0 mm 5 m/s 667 mmHg 73%
    10:00 +5°C° 0.4 mm 5 m/s 667 mmHg 74%
    11:00 +5°C° 0.4 mm 5 m/s 666 mmHg 75%
    12:00 +5°C° 0.4 mm 5 m/s 666 mmHg 75%
    13:00 +3°C° 1.5 mm 5 m/s 666 mmHg 80%
    14:00 +3°C° 1.5 mm 5 m/s 665 mmHg 84%
    15:00 +4°C° 1.5 mm 4 m/s 665 mmHg 89%
    16:00 +4°C° 1 mm 4 m/s 665 mmHg 89%
    17:00 +4°C° 1 mm 4 m/s 665 mmHg 90%
    18:00 +4°C° 1 mm 4 m/s 665 mmHg 91%
    19:00 +4°C° 0 mm 4 m/s 666 mmHg 91%
    20:00 +3°C° 0 mm 4 m/s 666 mmHg 91%
    21:00 +3°C° 0 mm 3 m/s 666 mmHg 91%
    22:00 +3°C° 0 mm 3 m/s 666 mmHg 91%
    23:00 +3°C° 0 mm 3 m/s 666 mmHg 92%

    19 Noiembrie, Marţi

    Timp Temperatura Precipitaţii Vânt Presiune Umiditate
    00:00 +3°C° 0 mm 3 m/s 666 mmHg 92%
    01:00 +3°C° 0 mm 3 m/s 666 mmHg 92%
    02:00 +3°C° 0 mm 2 m/s 666 mmHg 92%
    03:00 +3°C° 0 mm 2 m/s 666 mmHg 91%
    04:00 +3°C° 0 mm 2 m/s 666 mmHg 89%
    05:00 +3°C° 0 mm 2 m/s 667 mmHg 87%
    06:00 +3°C° 0 mm 1 m/s 667 mmHg 84%
    07:00 +4°C° 0 mm 2 m/s 668 mmHg 78%
    08:00 +5°C° 0 mm 2 m/s 668 mmHg 73%
    09:00 +7°C° 0 mm 2 m/s 669 mmHg 67%
    10:00 +7°C° 0 mm 2 m/s 669 mmHg 64%
    11:00 +9°C° 0 mm 1 m/s 669 mmHg 62%
    12:00 +10°C° 0 mm 1 m/s 669 mmHg 59%
    13:00 +10°C° 0 mm 1 m/s 669 mmHg 57%
    14:00 +10°C° 0 mm 1 m/s 669 mmHg 56%
    15:00 +10°C° 0 mm 1 m/s 669 mmHg 54%
    16:00 +9°C° 0 mm 1 m/s 669 mmHg 61%
    17:00 +8°C° 0 mm 1 m/s 668 mmHg 68%
    18:00 +7°C° 0 mm 1 m/s 668 mmHg 75%
    19:00 +7°C° 0 mm 1 m/s 668 mmHg 76%
    20:00 +6°C° 0 mm 1 m/s 669 mmHg 77%
    21:00 +6°C° 0 mm 1 m/s 669 mmHg 78%
    22:00 +5°C° 0 mm 2 m/s 669 mmHg 77%
    23:00 +5°C° 0 mm 2 m/s 669 mmHg 77%

    20 Noiembrie, Miercuri

    Timp Temperatura Precipitaţii Vânt Presiune Umiditate
    00:00 +5°C° 0 mm 2 m/s 668 mmHg 76%
    01:00 +5°C° 0 mm 2 m/s 668 mmHg 75%
    02:00 +4°C° 0 mm 2 m/s 668 mmHg 74%
    03:00 +4°C° 0 mm 2 m/s 668 mmHg 73%
    04:00 +4°C° 0 mm 2 m/s 668 mmHg 73%
    05:00 +4°C° 0 mm 2 m/s 668 mmHg 74%
    06:00 +4°C° 0 mm 2 m/s 668 mmHg 74%
    07:00 +4°C° 0 mm 3 m/s 668 mmHg 68%
    08:00 +5°C° 0 mm 3 m/s 669 mmHg 63%
    09:00 +8°C° 0 mm 3 m/s 669 mmHg 57%
    10:00 +8°C° 0 mm 4 m/s 669 mmHg 55%
    11:00 +8°C° 0 mm 4 m/s 669 mmHg 54%
    12:00 +9°C° 0 mm 5 m/s 669 mmHg 52%
    13:00 +9°C° 0 mm 5 m/s 669 mmHg 52%
    14:00 +9°C° 0 mm 5 m/s 668 mmHg 53%
    15:00 +9°C° 0 mm 5 m/s 668 mmHg 53%
    16:00 +8°C° 0 mm 4 m/s 668 mmHg 57%
    17:00 +8°C° 0 mm 3 m/s 668 mmHg 62%
    18:00 +5°C° 0 mm 3 m/s 668 mmHg 66%
    19:00 +5°C° 0 mm 3 m/s 668 mmHg 65%
    20:00 +5°C° 0 mm 3 m/s 668 mmHg 63%
    21:00 +5°C° 0 mm 3 m/s 668 mmHg 62%
    22:00 +5°C° 0 mm 3 m/s 668 mmHg 62%
    23:00 +5°C° 0 mm 3 m/s 668 mmHg 62%
    Arată mai mult